Tracking 18710 objects as of 29-June-2017
HD Live streaming from Space Station
objects crossing your sky now

RIGIDSPHERE 2 (LCS 4)

Track RIGIDSPHERE 2 (LCS 4) now!
10-day predictions
RIGIDSPHERE 2 (LCS 4) is classified as:


NORAD ID: 5398
Int'l Code: 1971-067E
Perigee: 743.0 km
Apogee: 830.8 km
Inclination: 87.6 °
Period: 100.4 minutes
Semi major axis: 7157 km
RCS: 0.9311 m2 (medium)
Launch date: August 7, 1971
Source: United States (US)
Launch site: AIR FORCE WESTERN TEST RANGE (AFWTR)
Your satellite tracking list
Your tracking list is empty





NASA's NSSDC Master Catalog

Two Line Element Set (TLE):
1  5398U 71067E   17179.61129726 +.00000147 +00000-0 +45685-4 0  9999
2  5398 087.6252 163.2941 0061343 247.9286 111.5390 14.33587567404207
Source of the keplerian elements: AFSPC